Temperature
26 27 28 29 29 29 29 29 29 30 30 30 30 30 30 29 28 28 27 25 24 22 21 20 19 19 18 18 18 18 18 18 18 17 17 17 17 17 17 17 17 17 17 17
26 27 29 29 29 28 28 28 29 30 29 29 30 30 30 29 28 27 27 26 24 23 21 19 19 18 18 18 18 18 18 18 18 17 17 17 17 17 17 17 17 17 17 17
27 29 29 28 27 27 28 28 29 29 29 29 29 30 30 29 28 27 26 25 24 23 21 20 19 18 18 18 18 18 18 18 18 17 17 17 17 17 17 17 17 17 17 17
28 29 27 27 27 28 28 29 29 28 28 30 29 29 30 29 29 28 27 26 25 23 22 20 19 18 18 18 18 18 18 18 17 17 17 17 17 17 17 17 17 17 17 17
28 28 27 27 28 28 29 29 28 28 28 29 29 29 30 30 29 29 28 26 24 23 22 21 19 19 18 18 18 18 18 18 17 17 17 17 17 17 17 17 17 17 17 17
29 28 28 28 29 29 29 28 28 28 29 28 29 28 29 30 29 29 27 25 24 22 21 20 19 19 18 18 18 17 17 17 17 17 17 17 17 17 17 17 17 17 17 16
27 27 28 29 28 28 28 28 27 28 28 28 29 28 29 29 29 28 27 25 23 22 21 20 19 19 18 18 18 17 18 17 17 17 17 17 17 17 17 17 17 16 16 16
27 27 28 28 28 28 28 28 28 27 28 29 28 28 29 29 28 27 26 24 23 22 22 21 20 19 18 18 17 17 17 17 17 17 17 17 17 17 17 17 16 16 16 16
28 28 29 29 29 29 28 28 30 29 28 28 29 29 29 28 28 27 26 24 23 22 21 21 19 19 18 17 17 17 17 17 17 17 17 17 17 17 16 16 16 16 16 16
29 28 28 28 28 29 29 29 29 28 27 27 28 28 29 28 28 27 26 25 23 22 21 20 19 18 18 17 17 17 17 17 17 17 17 16 17 17 16 16 16 16 16 16
29 27 28 28 28 28 27 28 28 29 29 28 28 29 30 29 28 27 27 25 23 22 22 20 19 18 18 17 17 17 17 17 17 17 17 16 16 16 16 16 16 16 16 16
28 28 28 28 29 29 29 29 28 28 27 28 28 29 28 28 28 27 26 24 23 22 21 20 19 18 18 17 17 17 17 17 17 16 16 16 16 16 16 16 16 16 16 16
27 27 26 27 27 28 28 29 29 29 28 28 28 28 28 27 27 26 25 24 22 21 20 20 19 18 18 17 17 17 16 16 16 16 16 16 16 16 16 16 16 16 16 16
27 27 27 28 28 29 28 28 28 29 28 28 28 29 28 27 26 26 24 23 22 21 20 19 18 18 17 17 17 17 16 16 16 16 16 16 16 16 16 16 16 16 16 16
26 27 27 28 29 29 29 29 28 28 29 29 29 29 28 27 26 25 23 22 21 20 20 19 18 17 17 17 17 16 16 16 16 16 16 16 16 16 16 16 16 16 16 15
25 26 27 27 28 28 28 28 28 28 29 29 29 28 27 26 25 24 23 22 21 20 19 18 18 17 17 17 16 16 16 16 16 16 16 16 16 16 16 16 15 15 15 15
25 25 26 26 27 27 26 28 28 28 28 28 28 28 26 25 24 23 22 22 21 20 19 18 18 17 17 17 17 16 16 16 16 16 16 16 16 16 16 16 15 15 15 15
24 24 26 26 25 25 27 27 27 27 27 27 27 26 25 24 22 21 21 21 20 20 19 18 18 17 17 17 17 16 16 16 16 16 16 16 15 15 15 15 15 15 15 15
24 24 25 26 25 25 25 26 26 26 26 26 26 25 24 22 21 21 19 19 19 18 18 17 17 17 17 16 16 16 16 16 15 15 15 15 15 15 15 15 15 15 15 14
23 23 25 25 24 24 26 25 24 25 25 25 24 24 23 23 25 22 17 17 17 17 17 17 17 16 16 16 16 16 16 15 15 15 15 15 15 15 15 15 14 14 14 14
23 23 24 24 24 25 24 23 23 24 24 22 22 22 22 22 21 18 16 16 16 16 16 16 16 16 16 16 16 15 15 15 15 15 15 15 14 14 14 14 14 14 13 13
23 23 23 23 23 24 22 23 23 22 20 20 21 21 20 18 17 16 16 15 15 15 15 15 15 15 15 15 15 15 15 15 15 14 14 14 14 14 14 14 13 13 13 12
22 22 23 23 22 20 20 20 19 19 19 19 19 19 18 17 16 16 15 14 14 14 14 15 15 14 14 14 14 14 14 14 14 14 14 14 13 13 13 13 13 12 12 11
20 20 21 20 21 20 19 19 18 18 18 18 18 18 17 16 16 15 14 14 14 14 14 14 14 14 14 14 14 14 14 13 13 13 13 12 12 12 12 11 11 11 11 11
20 20 20 20 20 19 19 18 17 17 17 17 17 16 16 15 15 14 14 13 13 13 13 13 13 13 13 13 13 13 13 13 13 12 12 11 11 11 11 10 10 10 10 10
20 20 20 20 19 19 18 17 16 16 16 16 15 15 15 14 14 13 13 12 12 12 12 12 12 12 12 12 12 12 12 12 12 11 11 11 10 10 10 9 9 8 8 8
Wind_Speed
11 12 14 14 14 11 8 9 9 7 5 8 9 8 6 3 4 5 5 6 8 9 9 10 13 13 13 13 14 15 15 14 12 11 11 10 9 8 8 7 9 10 9 9
10 16 16 10 10 11 12 12 11 6 3 7 9 9 6 4 5 5 5 6 7 9 10 12 13 13 13 14 14 15 15 15 14 11 10 9 9 8 8 7 8 10 10 9
17 5 9 13 13 13 14 13 10 7 6 7 8 10 7 5 5 5 5 5 6 9 11 12 13 13 13 14 14 14 15 15 15 13 10 9 8 6 7 8 8 9 10 10
15 10 7 13 14 14 13 10 9 8 9 6 4 9 5 4 5 6 5 5 6 8 10 12 13 13 14 13 13 14 14 14 14 13 13 14 12 11 10 9 8 9 10 11
12 13 14 14 14 14 9 4 6 8 9 10 8 9 5 4 5 4 4 4 6 7 9 11 12 13 12 13 12 13 14 14 14 15 15 14 13 10 8 8 9 10 9 10
12 8 11 13 12 13 8 6 6 8 10 12 8 8 7 3 2 2 2 4 5 7 8 9 10 11 11 11 11 12 13 14 15 15 15 15 14 12 11 11 10 10 9 9
14 14 11 10 11 11 12 10 8 9 9 8 3 7 5 2 1 2 2 5 6 7 8 10 11 11 11 11 11 12 12 13 14 15 15 15 14 13 13 12 11 10 9 9
15 14 16 14 16 12 16 16 10 7 7 5 5 6 2 1 0 1 3 6 7 8 8 9 10 10 10 11 11 11 12 12 13 14 14 13 13 10 10 12 10 10 9 9
12 10 9 13 15 16 15 16 15 11 9 8 5 4 3 3 3 3 5 6 7 7 8 9 10 9 10 10 10 11 11 11 12 13 13 12 12 11 10 10 10 9 8 8
8 8 9 9 10 14 13 12 9 11 9 9 7 7 3 4 4 5 6 7 7 7 8 9 9 9 9 9 9 10 10 10 10 10 10 9 10 10 9 9 10 9 9 9
12 9 9 11 12 15 12 11 11 10 9 8 6 2 3 3 3 4 6 7 8 8 8 9 9 9 9 9 9 9 9 9 9 9 9 9 9 9 9 9 10 9 9 10
14 10 10 11 6 6 13 13 13 11 9 9 8 1 6 4 3 4 5 7 8 8 8 9 9 9 8 8 9 9 9 9 9 9 9 9 8 8 8 9 9 9 9 10
12 9 11 11 10 9 11 12 13 12 9 9 10 3 7 5 4 4 5 7 8 9 9 9 9 8 8 8 8 8 9 9 9 9 9 9 9 9 8 8 8 8 8 9
9 10 13 13 11 13 13 12 13 13 11 10 10 4 5 4 4 4 5 6 8 9 9 9 8 8 7 7 8 8 8 8 9 9 9 9 9 9 9 8 8 8 9 9
8 11 13 11 6 9 12 13 13 14 12 10 8 6 3 3 4 5 6 7 8 9 9 8 8 8 8 7 7 7 8 8 8 9 9 9 9 9 8 8 8 8 8 9
6 8 10 11 10 10 11 12 12 12 10 10 7 4 2 4 5 5 6 7 7 8 8 8 8 8 8 8 8 7 7 8 8 8 8 8 8 9 8 8 8 8 8 8
8 8 10 12 11 11 14 13 13 11 9 10 9 4 5 5 5 5 5 5 6 7 7 7 7 7 7 8 8 8 8 8 9 8 8 8 8 9 9 9 8 8 8 8
7 9 9 10 11 15 7 3 6 8 7 6 3 3 4 5 6 5 4 4 4 5 5 6 6 6 6 7 8 8 8 8 8 8 8 8 9 9 9 8 8 8 8 8
6 8 9 10 14 12 5 5 7 8 7 5 4 4 5 7 7 6 5 4 3 3 4 4 5 6 6 7 7 8 8 8 8 8 8 8 8 9 10 9 9 8 8 8
6 7 10 11 14 13 8 6 3 5 8 4 4 5 6 6 6 4 5 4 5 4 4 3 4 5 6 6 8 9 9 8 8 7 7 7 7 9 10 10 10 9 9 9
13 10 13 13 12 8 4 5 6 9 3 4 3 4 4 2 3 6 6 5 5 5 4 4 4 5 5 5 7 8 8 7 7 7 7 8 8 9 10 10 9 10 10 11
11 11 12 12 13 9 5 4 4 2 5 3 2 3 5 7 8 7 6 5 5 5 5 5 5 5 4 5 7 7 7 7 8 9 9 8 8 8 9 10 10 11 12 12
6 4 5 5 2 5 3 2 3 2 2 2 2 3 5 7 7 6 6 5 5 5 5 4 5 6 5 5 6 7 7 8 9 10 9 9 10 8 9 10 10 10 10 10
3 0 2 2 3 3 3 2 2 2 2 2 2 3 5 6 6 6 6 5 5 5 5 5 6 6 6 5 6 7 8 9 11 11 11 10 10 10 10 8 8 8 8 9
2 4 4 5 3 2 3 2 2 3 3 3 3 4 5 6 6 6 6 6 5 5 5 6 7 7 7 7 7 7 8 11 12 12 12 12 11 12 12 11 10 9 8 8
5 4 5 4 2 2 2 2 2 2 3 3 4 5 6 6 7 7 7 6 6 6 6 7 8 8 8 8 8 7 8 11 13 12 12 11 11 11 12 13 14 20 16 18
Wind_Direction
194 216 222 224 228 254 268 264 262 269 287 283 273 277 281 271 248 238 221 204 196 191 178 175 176 177 176 178 180 182 184 183 181 179 181 183 184 186 188 191 186 191 194 191
199 227 232 234 230 237 245 252 256 259 264 281 279 275 266 257 253 250 236 217 199 183 172 170 173 176 178 181 184 184 185 183 184 185 185 185 181 191 190 193 191 197 197 198
215 229 221 216 218 226 235 245 257 273 287 249 271 261 238 234 234 239 235 218 198 184 179 174 176 180 183 185 187 187 186 185 187 184 180 175 173 183 189 193 195 198 199 203
230 220 199 208 218 224 235 239 253 262 266 255 264 286 261 242 241 238 229 207 195 184 182 178 180 184 187 187 187 187 185 185 185 185 187 186 189 194 198 193 193 194 200 204
217 217 212 218 221 221 236 233 240 250 257 267 250 272 280 237 259 241 215 198 184 180 182 180 183 186 188 186 187 188 186 187 188 192 193 194 197 199 191 192 190 194 196 203
230 210 219 226 225 219 214 212 226 239 247 253 256 268 280 273 282 266 180 173 169 170 174 174 177 180 184 185 186 187 187 190 190 193 196 199 200 196 191 196 195 197 195 200
217 215 212 214 202 194 204 214 220 224 227 245 193 254 276 345 326 278 201 170 163 168 171 171 175 179 182 184 186 185 186 189 189 191 195 198 199 196 196 198 198 198 197 198
207 212 206 210 215 201 206 219 234 245 246 235 184 249 273 93 77 194 164 154 163 170 170 173 176 177 179 183 184 185 186 186 186 189 192 195 195 198 201 202 200 200 203 201
208 210 186 207 214 221 212 224 238 254 267 270 247 242 228 163 173 165 162 164 168 167 169 170 171 171 174 179 182 185 185 185 185 187 188 193 195 199 200 200 203 201 200 195
214 207 181 181 195 213 228 222 220 232 241 248 239 238 236 173 166 155 158 165 162 163 166 163 165 166 167 170 172 177 182 184 184 184 186 190 194 197 200 203 203 200 198 196
220 215 179 178 196 189 195 209 220 229 242 253 251 219 98 142 161 165 159 162 162 164 162 159 158 161 164 166 168 173 176 179 181 183 184 186 190 194 200 201 202 198 196 193
210 220 210 195 187 207 206 212 211 220 222 240 265 215 103 120 139 152 150 152 158 161 158 156 157 161 168 170 173 176 179 183 183 182 182 184 189 190 196 199 197 195 192 191
187 207 208 199 196 201 213 215 217 229 231 234 245 196 118 125 138 142 142 147 154 159 159 157 157 165 172 174 175 177 179 183 181 179 183 186 189 190 193 194 187 186 185 186
197 213 224 222 208 192 201 204 209 217 225 227 239 229 151 148 149 148 145 149 156 159 161 163 162 165 168 168 170 176 180 179 178 178 181 186 188 188 187 184 181 181 179 177
205 217 225 242 229 208 210 205 204 218 236 242 227 225 189 159 154 147 148 152 157 161 163 164 166 166 168 169 171 176 178 178 177 179 183 184 182 180 178 175 175 173 172 171
207 223 212 219 214 214 218 214 209 218 230 240 241 227 106 122 137 141 148 154 162 166 166 165 166 169 172 173 175 177 176 175 175 180 180 175 171 169 167 167 165 160 159 158
196 205 212 217 204 208 219 217 214 215 224 234 236 215 144 145 141 141 149 154 159 163 163 168 171 173 172 176 176 178 177 174 173 174 171 167 165 162 161 156 153 153 150 146
205 212 218 216 203 223 213 171 218 220 226 239 232 158 148 133 119 103 116 135 142 154 160 164 169 169 171 170 171 172 172 169 170 170 167 164 160 156 150 145 142 142 138 135
211 212 220 218 219 220 190 183 194 208 221 214 202 167 142 134 138 111 80 85 99 114 135 151 161 161 163 165 164 160 159 160 159 161 161 162 159 154 146 140 138 135 130 127
189 216 225 223 231 229 210 155 167 215 219 175 179 172 165 183 210 124 87 71 73 76 98 123 140 146 153 161 160 158 156 156 155 154 152 149 148 147 142 138 135 129 123 119
194 204 221 225 231 233 108 133 181 221 204 110 153 166 174 149 57 102 97 81 80 83 90 105 122 134 144 153 158 157 150 147 144 138 133 130 130 132 131 128 126 125 120 115
207 208 215 225 231 222 109 171 210 62 76 95 113 134 123 105 105 107 97 88 86 87 89 100 110 109 115 134 144 142 138 135 131 127 124 121 120 122 124 123 122 122 122 117
225 252 228 231 220 76 88 69 49 63 100 100 104 122 126 124 121 111 100 92 89 90 91 96 107 103 98 111 132 136 136 132 126 120 117 115 112 110 115 119 121 121 121 119
180 203 221 210 158 111 95 96 101 95 98 93 106 126 132 131 124 116 110 105 100 94 97 102 103 100 98 100 109 118 125 124 121 117 113 109 107 102 95 95 103 114 121 123
202 195 211 220 190 172 143 97 88 97 96 102 109 121 127 124 119 117 116 112 106 100 96 101 102 100 96 99 102 110 118 120 116 113 109 106 102 100 92 82 70 82 78 100
216 222 231 232 156 202 133 101 97 107 103 106 110 111 114 117 118 117 114 112 109 106 101 100 98 97 94 94 96 102 111 118 118 114 110 109 108 106 104 100 84 64 72 73
Height
1495 1494 1490 1486 1485 1485 1486 1488 1488 1484 1481 1482 1479 1477 1475 1477 1479 1480 1482 1485 1488 1491 1493 1494 1496 1499 1503 1506 1509 1512 1516 1519 1523 1527 1530 1534 1537 1541 1545 1548 1551 1554 1556 1559
1492 1489 1482 1482 1485 1488 1489 1490 1486 1481 1481 1482 1478 1476 1473 1475 1477 1478 1480 1482 1485 1488 1491 1493 1495 1498 1501 1503 1506 1510 1513 1516 1520 1524 1528 1532 1535 1539 1543 1546 1548 1551 1554 1557
1483 1478 1479 1483 1486 1489 1487 1487 1483 1484 1480 1478 1479 1475 1471 1471 1475 1477 1478 1480 1483 1485 1488 1491 1494 1497 1499 1501 1504 1507 1510 1513 1517 1521 1525 1529 1533 1536 1539 1543 1546 1549 1552 1555
1478 1475 1480 1482 1483 1484 1486 1479 1481 1483 1484 1477 1480 1483 1470 1468 1470 1472 1475 1478 1480 1484 1487 1489 1492 1495 1497 1499 1502 1505 1508 1511 1515 1518 1522 1525 1528 1532 1536 1539 1543 1546 1549 1553
1474 1473 1478 1480 1478 1479 1477 1477 1479 1480 1481 1482 1476 1481 1470 1465 1468 1468 1471 1475 1478 1482 1484 1487 1490 1492 1495 1498 1500 1502 1505 1508 1512 1515 1518 1522 1526 1530 1533 1537 1540 1543 1547 1550
1466 1470 1472 1471 1472 1474 1476 1480 1480 1479 1477 1488 1477 1481 1475 1461 1465 1465 1470 1474 1478 1480 1483 1486 1488 1491 1493 1496 1498 1500 1502 1505 1508 1511 1515 1519 1523 1526 1530 1533 1537 1540 1544 1546
1470 1468 1468 1469 1471 1473 1476 1482 1488 1489 1487 1482 1472 1478 1471 1461 1463 1466 1469 1473 1477 1479 1482 1484 1487 1489 1491 1494 1496 1498 1500 1502 1505 1508 1511 1515 1519 1523 1526 1530 1534 1537 1541 1543
1469 1468 1462 1463 1465 1468 1472 1473 1484 1490 1484 1474 1475 1475 1463 1461 1464 1467 1469 1473 1476 1478 1480 1483 1485 1487 1489 1492 1494 1496 1497 1500 1503 1506 1509 1512 1516 1520 1524 1528 1531 1534 1537 1540
1457 1461 1454 1457 1459 1462 1467 1468 1461 1470 1474 1479 1469 1465 1459 1460 1463 1465 1469 1472 1475 1477 1480 1482 1484 1486 1488 1490 1492 1494 1496 1498 1501 1504 1507 1510 1514 1518 1521 1524 1528 1531 1534 1537
1448 1458 1453 1455 1459 1460 1458 1459 1465 1471 1484 1486 1474 1469 1463 1460 1461 1463 1467 1470 1474 1477 1479 1481 1483 1485 1487 1489 1491 1493 1495 1497 1499 1502 1505 1508 1511 1515 1518 1521 1524 1527 1531 1534
1447 1456 1455 1455 1457 1459 1464 1464 1462 1463 1464 1476 1478 1468 1451 1456 1459 1462 1465 1469 1473 1475 1478 1480 1483 1485 1487 1489 1490 1492 1494 1496 1498 1501 1503 1506 1509 1512 1516 1518 1521 1524 1527 1530
1446 1450 1452 1450 1447 1447 1451 1453 1458 1468 1470 1467 1467 1465 1453 1455 1459 1462 1464 1469 1472 1475 1477 1480 1482 1484 1486 1488 1490 1492 1493 1495 1497 1500 1502 1505 1508 1510 1513 1516 1519 1522 1525 1528
1446 1451 1461 1459 1457 1454 1451 1450 1451 1453 1458 1462 1466 1463 1454 1457 1460 1463 1466 1469 1472 1475 1477 1480 1482 1484 1486 1488 1490 1491 1493 1495 1497 1499 1501 1503 1506 1508 1511 1514 1517 1519 1522 1525
1445 1445 1448 1451 1445 1443 1449 1449 1449 1452 1456 1458 1457 1454 1453 1456 1459 1463 1466 1470 1472 1475 1477 1479 1482 1483 1485 1487 1489 1490 1492 1494 1496 1498 1500 1502 1504 1506 1509 1512 1515 1517 1520 1522
1443 1443 1441 1436 1435 1437 1441 1444 1447 1450 1446 1450 1449 1449 1450 1454 1459 1463 1466 1469 1472 1474 1477 1479 1481 1483 1484 1486 1488 1490 1491 1493 1495 1496 1498 1500 1502 1505 1508 1510 1513 1515 1518 1520
1442 1441 1441 1443 1439 1440 1443 1441 1444 1446 1445 1446 1446 1449 1451 1456 1460 1464 1466 1469 1471 1474 1476 1478 1480 1482 1483 1485 1487 1489 1490 1492 1493 1495 1497 1499 1501 1504 1506 1509 1511 1513 1515 1518
1439 1442 1445 1444 1440 1444 1450 1442 1442 1444 1444 1444 1447 1449 1453 1457 1461 1464 1466 1468 1470 1473 1475 1477 1478 1480 1482 1484 1486 1487 1489 1491 1492 1494 1496 1498 1500 1502 1504 1507 1510 1512 1514 1517
1441 1442 1440 1440 1448 1459 1441 1438 1439 1442 1444 1445 1447 1450 1454 1458 1463 1466 1467 1469 1471 1472 1474 1476 1477 1479 1481 1483 1484 1486 1488 1490 1491 1493 1495 1497 1499 1501 1503 1506 1508 1510 1512 1515
1440 1441 1440 1441 1447 1445 1444 1441 1442 1445 1447 1447 1449 1453 1457 1461 1463 1466 1469 1470 1471 1472 1473 1475 1476 1478 1479 1481 1483 1485 1486 1488 1490 1492 1494 1496 1498 1500 1502 1504 1507 1509 1511 1514
1441 1441 1440 1442 1447 1451 1440 1441 1445 1447 1450 1449 1452 1454 1457 1459 1456 1463 1469 1470 1471 1471 1472 1474 1475 1476 1478 1480 1482 1483 1485 1487 1489 1491 1493 1495 1497 1499 1501 1503 1506 1509 1511 1513
1439 1442 1441 1442 1445 1440 1440 1444 1447 1454 1450 1453 1454 1456 1458 1459 1461 1467 1469 1470 1471 1471 1472 1473 1474 1476 1477 1479 1481 1482 1484 1485 1488 1489 1492 1494 1496 1498 1500 1503 1506 1508 1511 1513
1434 1437 1441 1441 1446 1446 1446 1446 1447 1450 1454 1455 1457 1458 1461 1463 1465 1467 1469 1470 1471 1471 1472 1473 1474 1475 1476 1477 1479 1480 1482 1484 1486 1488 1490 1492 1495 1497 1499 1502 1504 1507 1510 1512
1435 1436 1433 1438 1443 1448 1449 1450 1453 1455 1456 1457 1458 1460 1462 1464 1466 1468 1469 1470 1471 1472 1472 1473 1473 1474 1475 1476 1478 1479 1481 1482 1484 1486 1488 1491 1494 1496 1499 1501 1504 1506 1509 1512
1440 1443 1441 1444 1445 1449 1451 1453 1455 1456 1457 1458 1459 1461 1462 1464 1466 1467 1469 1470 1471 1472 1472 1473 1474 1474 1475 1476 1476 1478 1480 1481 1483 1485 1487 1490 1492 1495 1498 1501 1504 1506 1509 1511
1440 1442 1442 1444 1448 1450 1452 1454 1456 1456 1457 1458 1459 1461 1462 1464 1465 1467 1469 1470 1471 1472 1473 1474 1474 1474 1475 1475 1476 1478 1479 1481 1483 1485 1487 1490 1493 1495 1498 1501 1504 1507 1509 1512
1442 1442 1443 1443 1448 1449 1452 1455 1456 1457 1457 1458 1460 1461 1462 1463 1465 1466 1468 1470 1471 1472 1473 1474 1474 1474 1475 1476 1477 1478 1480 1482 1483 1486 1488 1491 1494 1497 1499 1502 1505 1509 1512 1515